www.pogodaiklimat.ru

Погода и климат >> Архив погоды >> Малайзия >> Kuala Lumpur


АРХИВ ПОГОДЫ в Kuala Lumpur

Время (UTC), дата Ветер
(напр.,м/с)
 
Видим.   Явления Облачность Т
(С)
Тd
(С)
f
(%)
Тe
(С)
Тes
(С)
Комфортность P
(гПа)
Po
(гПа)
Тmin
(С)
Tmax
(С)
R
(мм)
R24
(мм)
S
(см)
18 19.06 СЗ 2 10 км мгла 9/3 750 м
[Sc Ac trans Ci sp]
+27.4 +22.4 74 +36 +36 очень
душно
1010.6 1008.1
21 19.06 СВ 1 6000 м гроза, ливневой дождь 9/6 240 м
[Cb cap Ac lent Cs]
+23.7 +22.6 94 +31 +31 очень
душно
1010.1 1007.6
00 20.06 штиль 0 12 км в посл. час дождь {гроза} 9/5 180 м
[Sc Ac lent Ci sp]
+23.6 +22.4 93 +31 +31 очень
душно
1011.1 1008.6 +22.9 31
03 20.06 штиль 0 12 км мгла 9/1 540 м
[Cu med, cong Ac und Ci sp]
+29.4 +23.0 68 +39 +48 очень
душно
1011.6 1009.1
06 20.06 ЮЗ 3 15 км мгла 9/4 600 м
[Cu med, cong Ac trans Ci sp]
+31.1 +23.3 63 +42 +47 опасность
перегрева
1009.6 1007.1
09 20.06 ЮЗ 4 18 км мгла 9/3 600 м
[Cu med, cong Ac lent Ci sp]
+32.2 +24.3 63 +44 +46 опасность
перегрева
1007.9 1005.4
12 20.06 З 2 10 км мгла 9/1 900 м
[Sc diur, vesp Ac lent Ci sp]
+29.6 +24.4 74 +42 +42 опасность
перегрева
1009.0 1006.5 +33.5
15 20.06 штиль 0 10 км мгла 9/1 900 м
[Sc Ac lent Ci sp]
+27.3 +24.2 83 +38 +38 очень
душно
1010.9 1008.4
18 20.06 штиль 0 10 км мгла 9/1 900 м
[Sc Ac lent Ci sp]
+26.6 +24.3 87 +37 +37 очень
душно
1010.1 1007.6
21 20.06 штиль 0 8000 м мгла 9/1 900 м
[Sc Ac lent Ci sp]
+26.4 +24.2 88 +37 +37 очень
душно
1009.2 1006.7
00 21.06 штиль 0 6000 м мгла 9/3 500 м
[Cb cap Ac lent Ci sp]
+26.4 +24.4 89 +37 +38 очень
душно
1011.3 1008.8 +23.6
03 21.06 СЗ 1 5000 м мгла 9/3 500 м
[Cb cap Ac lent Ci sp]
+31.2 +23.7 64 +42 +49 опасность
перегрева
1011.9 1009.4
06 21.06 Ю 5 8000 м осадки на расстоянии 9/4 500 м
[Cb cap Ac trans Ci sp]
+30.8 +24.0 67 +42 +46 опасность
перегрева
1010.1 1007.6
09 21.06 штиль 0 10 км мгла {гроза, дождь} 10/3 500 м
[Cb cap Ac lent Cs]
+28.7 +23.8 75 +40 +42 очень
душно
1008.4 1005.9
12 21.06 штиль 0 8000 м слабый дождь 9/3 800 м
[Sc Ac lent Cs]
+26.1 +24.0 88 +36 +36 очень
душно
1009.7 1007.2 +33.2 0.4
15 21.06 штиль 0 6000 м мгла 9/3 800 м
[Sc Ac und Ci sp]
+26.1 +24.3 90 +36 +36 очень
душно
1012.1 1009.6
18 21.06 штиль 0 7000 м мгла 9/3 800 м
[Sc Ac trans Ci sp]
+25.8 +24.1 90 +36 +36 очень
душно
1010.8 1008.3
21 21.06 штиль 0 7000 м мгла 9/3 800 м
[Sc Ac trans Ci sp]
+25.6 +24.0 91 +35 +35 очень
душно
1009.5 1007.0
00 22.06 С 1 6000 м мгла 9/4 500 м
[Cb cap Ac lent Cs]
+26.0 +23.3 85 +35 +35 очень
душно
1011.0 1008.5 +25.5 0.4
03 22.06 ЮВ 1 15 км мгла 9/4 500 м
[Cb cap Ac lent Ci sp]
+30.9 +24.0 67 +43 +49 опасность
перегрева
1012.1 1009.6
06 22.06 Ю 3 12 км мгла 9/4 500 м
[Cb cap Ac lent Ci ing]
+30.7 +23.0 64 +41 +47 опасность
перегрева
1010.4 1007.9
09 22.06 Ю 2 12 км мгла 9/3 500 м
[Cb cap Ac lent Cs]
+31.1 +22.2 59 +40 +43 очень
душно
1008.5 1006.0
12 22.06 штиль 0 10 км мгла 9/1 900 м
[Sc diur, vesp Ac cuf Ci sp]
+28.8 +23.5 73 +39 +39 очень
душно
1009.4 1006.9 +32.5
15 22.06 С 1 8000 м мгла 9/1 900 м
[Sc Ac lent Ci sp]
+27.7 +23.9 80 +38 +38 очень
душно
1011.6 1009.1
18 22.06 штиль 0 5000 м зарница 9/1 500 м
[Cb cap Ac lent Ci sp]
+26.5 +24.3 88 +37 +37 очень
душно
1010.7 1008.2
21 22.06 З 4 6000 м гроза без осадков 9/3 500 м
[Cb cap Ac lent Ci sp]
+25.9 +23.2 85 +35 +35 очень
душно
1010.6 1008.1
00 23.06 СЗ 3 10 км в посл. час дождь {гроза} 9/1 210 м
[Cu Sc Ac lent Cs]
+24.8 +23.5 92 +33 +34 очень
душно
1011.5 1009.0 +24.0 6
03 23.06 С 2 15 км мгла 9/1 570 м
[Cu med, cong Ac und Ci sp]
+28.7 +21.9 67 +37 +44 очень
душно
1011.8 1009.3
06 23.06 СЗ 3 18 км мгла 9/3 570 м
[Cu Sc Ac und Ci sp]
+31.0 +21.1 56 +39 +46 очень
душно
1009.5 1007.0
09 23.06 ЮЗ 3 18 км мгла 9 баллов +30.6 +22.2 61 +40 +40 очень
душно
1007.8 1005.3
12 23.06 ЮЗ 2 12 км мгла 9/1 900 м
[Sc Ac lent Ci sp]
+28.5 +22.6 70 +37 +37 очень
душно
1008.5 1006.0 +31.5
15 23.06 ЮВ 2 12 км мгла 9/1 900 м
[Sc Ac lent Ci sp]
+27.2 +23.8 82 +37 +37 очень
душно
1010.7 1008.2
18 23.06 штиль 0 8000 м мгла 9/1 900 м
[Sc Ac lent Ci sp]
+26.7 +24.1 86 +37 +37 очень
душно
1010.5 1008.0
21 23.06 штиль 0 5000 м зарница 9/1 500 м
[Cb cap Ac lent Ci sp]
+25.5 +23.4 88 +34 +34 очень
душно
1008.9 1006.4
00 24.06 штиль 0 6000 м мгла 9/1 500 м
[Cb cap Ac lent Ci sp]
+25.5 +23.7 90 +35 +35 очень
душно
1009.4 1006.9 +24.8
03 24.06 С 1 12 км мгла 9/1 600 м
[Cu med, cong Ac lent Ci sp]
+30.5 +22.4 62 +40 +48 очень
душно
1010.0 1007.5
06 24.06 СЗ 3 15 км мгла 9/3 600 м
[Cu med, cong Ac trans Ci sp]
+34.1 +21.1 47 +42 +48 опасность
перегрева
1008.2 1005.7
09 24.06 ЮЗ 4 15 км в посл. час гроза 9/3 500 м
[Cb cap Ac trans Ci sp]
+30.0 +23.4 68 +41 +42 опасность
перегрева
1006.5 1004.0
12 24.06 ЮВ 2 12 км мгла {гроза} 9/3 800 м
[Sc Ac lent Ci sp]
+28.6 +23.6 74 +39 +39 очень
душно
1008.5 1006.0 +34.4
15 24.06 штиль 0 10 км мгла 9/1 800 м
[Sc Ac lent Ci sp]
+28.0 +23.9 78 +39 +39 очень
душно
1010.0 1007.5
18 24.06 СЗ 2 6000 м зарница 9/4 500 м
[Cb cap Ac lent Ci sp]
+27.0 +23.6 82 +37 +37 очень
душно
1010.0 1007.5
21 24.06 СЗ 2 9000 м мгла 9/5 240 м
[Cb cap Ac und Ci sp]
+25.9 +22.8 83 +34 +34 очень
душно
1009.6 1007.1
00 25.06 ЮВ 1 9000 м слабый ливневой дождь, в посл. час гроза 9/5 300 м
[Cb cap Ac und Cs]
+24.2 +22.9 92 +32 +32 очень
душно
1009.8 1007.3 +24.0 6
03 25.06 В 1 20 км мгла {дождь} 9/1 600 м
[Cu med, cong Ac lent Ci sp]
+29.1 +23.1 70 +39 +47 очень
душно
1010.3 1007.8
06 25.06 ЮЗ 1 20 км мгла {дождь} 9/1 360 м
[Cu hum Ac lent Ci sp]
+33.7 +22.8 53 +44 +55 опасность
перегрева
1007.8 1005.3
09 25.06 З 4 15 км гроза без осадков 9/3 450 м
[Cb cap Ac lent Ci sp]
+32.3 +24.2 62 +44 +46 опасность
перегрева
1006.9 1004.4
12 25.06 СВ 1 12 км в посл. час гроза 9/4 500 м
[Cb cap Ac lent Ci sp]
+28.2 +23.0 73 +38 +38 очень
душно
1008.6 1006.1 +34.5
15 25.06 В 1 10 км мгла 9/3 750 м
[Sc Ac lent Ci sp]
+27.3 +23.6 80 +37 +37 очень
душно
1011.3 1008.8
18 25.06 штиль 0 10 км мгла 9/1 750 м
[Sc Ac lent Ci sp]
+27.2 +24.1 83 +38 +38 очень
душно
1010.8 1008.3
21 25.06 штиль 0 8000 м слабый дождь 10/1 500 м
[Cb cap Ac lent Cs]
+26.0 +24.2 90 +36 +36 очень
душно
1010.0 1007.5
00 26.06 ЮВ 2 10 км в посл. час дождь 10/1 300 м
[Cu Sc Ac lent Cs]
+25.9 +24.1 90 +36 +36 очень
душно
1011.3 1008.8 +24.2 0.6
03 26.06 В 1 15 км мгла 9/1 360 м
[Cu hum Ac lent Ci sp]
+29.0 +24.3 76 +41 +49 опасность
перегрева
1011.6 1009.1
06 26.06 ЮЗ 3 20 км мгла 9/3 600 м
[Cu med, cong Ac lent Ci sp]
+31.8 +24.3 65 +44 +51 опасность
перегрева
1009.6 1007.1
09 26.06 Ю 3 15 км мгла 9/1 500 м
[Cb cap Ac lent Ci sp]
+32.1 +24.3 63 +44 +47 опасность
перегрева
1007.6 1005.1
12 26.06 СВ 3 8000 м гроза, ливневой дождь 10/4 500 м
[Cb cap Ac und Cs]
+25.1 +23.0 88 +33 +33 очень
душно
1009.9 1007.4 +32.6 1
15 26.06 штиль 0 7000 м слабый ливневой дождь, в посл. час гроза 10/4 300 м
[Cb cap Ac lent Cs]
+23.2 +22.4 95 +32 +32 очень
душно
1012.6 1010.1

 

Местоположение метеостанции Kuala Lumpur (Малайзия): широта 3.12 долгота 101.55 высота над уровнем моря 22 м.

В архиве по умолчанию представлена погода в Kuala Lumpur за последнюю неделю. Архивные данные за месяц целиком и за предыдущие месяцы, начиная с января 2011 года, Вы можете получить, выбрав интересующий диапазон дат из раскрывающегося списка и нажав кнопку "Ввод!".

Внимание! Время в таблицах - всемирное. Для получения местного времени необходимо прибавить поправку, которая в Kuala Lumpur равна 7 ч.

Смотрите также архив погоды в соседних городах и на ближайших метеорологических станциях:

Погода в Kuala Lumpur Int Airport (Малайзия) (48 км)
Погода в Malacca (Малайзия) (122 км)
Погода в Cameron Highlands (Малайзия) (151 км)
Погода в Sitiawan (Малайзия) (155 км)
Погода в Ipoh (Малайзия) (169 км)
Погода в Kuantan (Малайзия) (198 км)
Погода в Penang (Малайзия) (282 км)
Погода в Johore Bharu / Senai (Малайзия) (288 км)
Погода в Butterworth Air Base (Малайзия) (292 км)
Погода в Pekanbaru (Индонезия) (295 км)

Пояснения к столбцам:

Ветер - указаны скорость ветра в м/с - средняя за 10 мин, порывы в срок и между сроками (в фигурных скобках) и направление, откуда дует ветер: С - северный, СВ - северо-восточный, В - восточный, ЮВ - юго-восточный, Ю - южный, ЮЗ - юго-западный, З - западный, СЗ - северо-западный.
Видимость - горизонтальная дальность видимости в метрах или километрах. При видимости от 1 до 10 км при отсутствии осадков обычно наблюдается дымка, при ухудшении видимости до 1 км и менее - туман. В сухую погоду видимость может ухудшаться дымом, пылью или мглою.
Явления - указаны атмосферные явления, наблюдавшиеся в срок или в последний час перед сроком; фигурными скобками обозначены явления, наблюдавшиеся между сроками (за 1-3 часа до срока); квадратными скобками обозначены град или гололедные отложения с указанием их диаметра в мм.
Облачность - указаны через наклонную черту общая и нижняя облачность в баллах и высота нижней границы облаков в метрах; квадратными скобками обозначены формы облаков: Ci - перистые, Cs - перисто-слоистые, Cc - перисто-кучевые, Ac - высококучевые, As - высокослоистые, Sc - слоисто-кучевые, Ns - слоисто-дождевые, Cu - кучевые, Cb - кучево-дождевые. Подробнее классификацию облаков см. в Атласе облаков (PDF).
T - Температура воздуха - температура, измеренная на высоте 2 м над землей.
Td - Температура точки росы - температура, при понижении до которой содержащийся в воздухе водяной пар достигнет насыщения.
f - Относительная влажность воздуха - влажноcть воздуха, измеренная на высоте 2 м над землей.
Te - Эффективная температура - температура, которую ощущает одетый по сезону человек в тени. Характеристика душности погоды. При расчете учитывается влияние влажности воздуха и скорости ветра на теплоощущения человека.
Tes - Эффективная температура на солнце - температура, которую ощущает человек, с поправкой на солнечный нагрев. Характеристика знойности погоды. Зависит от высоты солнца над горизонтом, облачности и скорости ветра. Ночью, в пасмурную погоду, а также при ветре 12 м/с и более поправка равна нулю.
P - Атмосферное давление - приведенное к уровню моря атмосферное давление.
Po - Атмосферное давление - измеренное на уровне метеостанции атмосферное давление.
Tmin - Минимальная температура - минимум температуры воздуха на высоте 2 м над землей.
Tmax - Максимальная температура - максимум температуры воздуха на высоте 2 м над землей.
R - Количество осадков - Количество выпавших осадков за период времени, мм. При наведении курсора мыши на число - период времени, за который выпало указанное количество осадков.
R24 - Количество осадков - Количество выпавших осадков за 24 часа, мм.
S - Снежный покров - Высота снежного покрова, см. При наведении курсора мыши на число - состояние снежного покрова и степень покрытия местности в баллах.